| time (UTC) | temp C | wind direction | speed KPH | gust KPH | rain 1hr cm | rain 24hr cm | rain mn cm | humidity % | barometer mb |
| 20260905164520 | 23 | 133 | 3.2 | 9.7 | 0.00 | 0.00 | 0.00 | 80 | 1017.4 |
| 20260905163019 | 23 | 67 | 4.8 | 9.7 | 0.00 | 0.00 | 0.00 | 81 | 1017.5 |
| 20260905161517 | 23 | 13 | 3.2 | 9.7 | 0.00 | 0.00 | 0.00 | 82 | 1017.5 |
| 20260905160033 | 22 | 34 | 3.2 | 8.0 | 0.00 | 0.00 | 0.00 | 84 | 1017.4 |
| 20260905154509 | 22 | 72 | 1.6 | 9.7 | 0.00 | 0.00 | 0.00 | 85 | 1017.4 |
| 20260905153006 | 22 | 165 | 3.2 | 4.8 | 0.00 | 0.00 | 0.00 | 85 | 1017.4 |
| 20260905151502 | 22 | 12 | 0.0 | 6.4 | 0.00 | 0.00 | 0.00 | 87 | 1017.1 |
| 20260905144601 | 21 | 30 | 4.8 | 12.9 | 0.00 | 0.00 | 0.00 | 90 | 1016.6 |
| 20260905143058 | 21 | 9 | 4.8 | 9.7 | 0.00 | 0.00 | 0.00 | 90 | 1016.6 |
| 20260905141557 | 21 | 31 | 1.6 | 8.0 | 0.00 | 0.00 | 0.00 | 91 | 1016.6 |
| 20260905140053 | 20 | 50 | 3.2 | 9.7 | 0.00 | 0.00 | 0.00 | 91 | 1016.7 |
| 20260905134556 | 20 | 46 | 1.6 | 6.4 | 0.00 | 0.00 | 0.00 | 91 | 1016.9 |
| 20260905133049 | 20 | 28 | 3.2 | 4.8 | 0.00 | 0.00 | 0.00 | 91 | 1016.8 |
| 20260905131551 | 20 | 38 | 3.2 | 4.8 | 0.00 | 0.00 | 0.00 | 91 | 1016.6 |
| 20260905130044 | 20 | 51 | 0.0 | 6.4 | 0.00 | 0.00 | 0.00 | 91 | 1016.1 |
| 20260905124543 | 20 | 19 | 3.2 | 8.0 | 0.00 | 0.00 | 0.00 | 91 | 1015.4 |
| 20260905123040 | 20 | 52 | 4.8 | 12.9 | 0.00 | 0.00 | 0.00 | 91 | 1015.0 |
| 20260905121538 | 20 | 40 | 0.0 | 4.8 | 0.00 | 0.00 | 0.00 | 91 | 1015.3 |
| 20260905120037 | 20 | 46 | 1.6 | 6.4 | 0.00 | 0.00 | 0.00 | 91 | 1015.4 |
| 20260905114541 | 20 | 49 | 1.6 | 4.8 | 0.00 | 0.00 | 0.00 | 90 | 1015.4 |
| 20260905113037 | 19 | 34 | 3.2 | 8.0 | 0.00 | 0.00 | 0.00 | 90 | 1015.1 |
| 20260905111533 | 19 | 69 | 3.2 | 9.7 | 0.00 | 0.00 | 0.00 | 90 | 1015.1 |
| 20260905110034 | 19 | 46 | 3.2 | 9.7 | 0.00 | 0.00 | 0.00 | 90 | 1015.1 |
| 20260905104529 | 20 | 80 | 4.8 | 9.7 | 0.00 | 0.00 | 0.00 | 89 | 1014.9 |
| 20260905103029 | 20 | 31 | 3.2 | 8.0 | 0.00 | 0.00 | 0.00 | 89 | 1014.8 |
| 20260905101539 | 20 | 49 | 3.2 | 12.9 | 0.00 | 0.00 | 0.00 | 89 | 1014.7 |
| 20260905100028 | 20 | 40 | 0.0 | 12.9 | 0.00 | 0.00 | 0.00 | 89 | 1014.9 |
| 20260905094527 | 20 | 42 | 3.2 | 16.1 | 0.00 | 0.00 | 0.00 | 89 | 1014.1 |
| 20260905093025 | 20 | 69 | 6.4 | 17.7 | 0.00 | 0.00 | 0.00 | 88 | 1014.0 |
| 20260905091524 | 20 | 42 | 4.8 | 14.5 | 0.00 | 0.00 | 0.00 | 88 | 1014.2 |
| 20260905090023 | 20 | 42 | 6.4 | 16.1 | 0.00 | 0.00 | 0.00 | 88 | 1014.4 |
| 20260905084522 | 20 | 67 | 3.2 | 16.1 | 0.00 | 0.00 | 0.00 | 88 | 1014.5 |
| 20260905083031 | 20 | 11 | 6.4 | 14.5 | 0.00 | 0.00 | 0.00 | 88 | 1014.5 |
| 20260905081520 | 20 | 45 | 4.8 | 17.7 | 0.00 | 0.00 | 0.00 | 88 | 1014.5 |
| 20260905080020 | 20 | 28 | 4.8 | 12.9 | 0.00 | 0.00 | 0.00 | 88 | 1014.6 |
| 20260905074519 | 19 | 23 | 3.2 | 14.5 | 0.00 | 0.00 | 0.00 | 87 | 1014.7 |
| 20260905073023 | 19 | 22 | 3.2 | 14.5 | 0.00 | 0.00 | 0.00 | 87 | 1014.8 |
| 20260905071517 | 20 | 23 | 3.2 | 12.9 | 0.00 | 0.00 | 0.00 | 86 | 1014.7 |
| 20260905070016 | 20 | 20 | 1.6 | 4.8 | 0.00 | 0.00 | 0.00 | 85 | 1014.8 |
| 20260905064523 | 20 | 13 | 4.8 | 9.7 | 0.00 | 0.00 | 0.00 | 85 | 1014.6 |
| 20260905063013 | 20 | 5 | 4.8 | 12.9 | 0.00 | 0.00 | 0.00 | 84 | 1014.7 |
| 20260905061510 | 20 | 346 | 4.8 | 9.7 | 0.00 | 0.00 | 0.00 | 84 | 1014.7 |
| 20260905060015 | 21 | 15 | 1.6 | 8.0 | 0.00 | 0.00 | 0.00 | 83 | 1014.6 |
| 20260905054506 | 21 | 30 | 3.2 | 8.0 | 0.00 | 0.00 | 0.00 | 82 | 1014.4 |
| 20260905053007 | 21 | 24 | 1.6 | 6.4 | 0.00 | 0.00 | 0.00 | 81 | 1014.5 |
| 20260905051539 | 21 | 38 | 0.0 | 4.8 | 0.00 | 0.00 | 0.00 | 80 | 1014.3 |
| 20260905050035 | 21 | 38 | 3.2 | 14.5 | 0.00 | 0.00 | 0.00 | 80 | 1014.0 |
| 20260905044532 | 22 | 55 | 3.2 | 12.9 | 0.00 | 0.00 | 0.00 | 79 | 1014.0 |
| 20260905043030 | 22 | 11 | 4.8 | 12.9 | 0.00 | 0.00 | 0.00 | 78 | 1014.2 |
| 20260905041529 | 22 | 78 | 6.4 | 14.5 | 0.00 | 0.00 | 0.00 | 77 | 1014.3 |
| 20260905040024 | 22 | 47 | 6.4 | 17.7 | 0.00 | 0.00 | 0.00 | 76 | 1014.1 |
| 20260905034523 | 23 | 36 | 6.4 | 17.7 | 0.00 | 0.00 | 0.00 | 76 | 1014.2 |
| 20260905033020 | 23 | 355 | 4.8 | 9.7 | 0.00 | 0.00 | 0.00 | 75 | 1014.1 |
| 20260905031523 | 23 | 19 | 6.4 | 17.7 | 0.00 | 0.00 | 0.00 | 74 | 1014.0 |
| 20260905030017 | 24 | 18 | 8.0 | 17.7 | 0.00 | 0.00 | 0.00 | 73 | 1013.9 |
| 20260905024527 | 24 | 54 | 8.0 | 22.5 | 0.00 | 0.00 | 0.00 | 71 | 1013.6 |
| 20260905023007 | 25 | 355 | 12.9 | 20.9 | 0.00 | 0.00 | 0.00 | 70 | 1013.4 |
| 20260905021502 | 25 | 13 | 9.7 | 17.7 | 0.00 | 0.00 | 0.00 | 70 | 1013.2 |
| 20260905020107 | 26 | 360 | 3.2 | 17.7 | 0.00 | 0.00 | 0.00 | 70 | 1013.2 |
| 20260905014557 | 26 | 11 | 3.2 | 12.9 | 0.00 | 0.00 | 0.00 | 69 | 1013.0 |
| 20260905013054 | 26 | 11 | 1.6 | 12.9 | 0.00 | 0.00 | 0.00 | 69 | 1013.0 |
| 20260905011546 | 27 | 32 | 1.6 | 9.7 | 0.00 | 0.00 | 0.00 | 68 | 1012.8 |
| 20260905010050 | 27 | 12 | 3.2 | 8.0 | 0.00 | 0.00 | 0.00 | 67 | 1012.7 |
| 20260905004555 | 27 | 46 | 0.0 | 6.4 | 0.00 | 0.00 | 0.00 | 66 | 1012.6 |
| 20260905003037 | 28 | 63 | 1.6 | 6.4 | 0.00 | 0.00 | 0.00 | 64 | 1012.6 |
| 20260905001535 | 28 | 27 | 0.0 | 6.4 | 0.00 | 0.00 | 0.00 | 63 | 1012.4 |
| 20260905000033 | 29 | 355 | 4.8 | 12.9 | 0.00 | 0.00 | 0.00 | 62 | 1012.3 |
| 20260904234532 | 30 | 355 | 3.2 | 8.0 | 0.00 | 0.00 | 0.00 | 62 | 1012.3 |
| 20260904233033 | 30 | 324 | 6.4 | 16.1 | 0.00 | 0.00 | 0.00 | 63 | 1012.2 |
| 20260904231535 | 30 | 26 | 4.8 | 12.9 | 0.00 | 0.00 | 0.00 | 62 | 1012.2 |
| 20260904230029 | 30 | 58 | 3.2 | 9.7 | 0.00 | 0.00 | 0.00 | 61 | 1012.0 |
| 20260904224527 | 30 | 323 | 4.8 | 12.9 | 0.00 | 0.00 | 0.00 | 62 | 1012.0 |
| 20260904223027 | 30 | 331 | 6.4 | 14.5 | 0.00 | 0.00 | 0.00 | 61 | 1011.9 |
| 20260904221526 | 30 | 355 | 4.8 | 12.9 | 0.00 | 0.00 | 0.00 | 62 | 1011.8 |
| 20260904220025 | 30 | 51 | 4.8 | 14.5 | 0.00 | 0.00 | 0.00 | 61 | 1011.6 |
| 20260904214524 | 30 | 355 | 6.4 | 12.9 | 0.00 | 0.00 | 0.00 | 62 | 1011.6 |
| 20260904213028 | 30 | 34 | 6.4 | 14.5 | 0.00 | 0.00 | 0.00 | 62 | 1011.5 |
| 20260904211523 | 30 | 355 | 6.4 | 14.5 | 0.00 | 0.00 | 0.00 | 63 | 1011.6 |
| 20260904210027 | 30 | 32 | 4.8 | 16.1 | 0.00 | 0.00 | 0.00 | 63 | 1011.7 |
| 20260904204517 | 30 | 301 | 3.2 | 12.9 | 0.00 | 0.00 | 0.00 | 65 | 1011.5 |
| 20260904203016 | 29 | 9 | 6.4 | 14.5 | 0.00 | 0.00 | 0.00 | 66 | 1011.3 |
| 20260904201512 | 29 | 351 | 1.6 | 14.5 | 0.00 | 0.00 | 0.00 | 68 | 1011.1 |
| 20260904190019 | 28 | 86 | 4.8 | 16.1 | 0.00 | 0.00 | 0.00 | 71 | 1011.8 |
| 20260904184512 | 28 | 355 | 8.0 | 20.9 | 0.00 | 0.08 | 0.00 | 71 | 1011.8 |
| 20260904183014 | 27 | 5 | 6.4 | 17.7 | 0.00 | 0.08 | 0.00 | 73 | 1011.7 |
| 20260904181510 | 27 | 350 | 8.0 | 19.3 | 0.00 | 0.08 | 0.00 | 74 | 1011.7 |
| 20260904180011 | 27 | 350 | 11.3 | 20.9 | 0.00 | 0.08 | 0.00 | 73 | 1011.7 |
| 20260904174507 | 27 | 355 | 4.8 | 17.7 | 0.00 | 0.08 | 0.00 | 74 | 1011.5 |
| 20260904173004 | 27 | 13 | 6.4 | 16.1 | 0.00 | 0.08 | 0.00 | 74 | 1011.4 |
| 20260904171502 | 27 | 355 | 8.0 | 16.1 | 0.00 | 0.08 | 0.00 | 74 | 1011.3 |
| 20260904170100 | 27 | 351 | 4.8 | 19.3 | 0.00 | 0.08 | 0.00 | 76 | 1011.2 |